Date,Output(kWh),Demand(kWh),Import(kWh),Export(kWh),HW(kWh),HWPV(kWh),Output(kWh/d),Demand(kWh/d),Import(kWh/d),Export(kWh/d),HW(kWh/d),HWPV(kWh/d)
18/02/2014,2.2,10.9,8.7,0.1,0.1,0.1,,,,,,
19/02/2014,7.7,25.2,17.8,0.3,0.8,0.8,5.5,14.3,9.1,0.3,0.7,0.7
20/02/2014,12.6,36.0,23.9,0.5,1.3,1.3,4.9,10.8,6.1,0.2,0.5,0.5
21/02/2014,18.2,47.7,30.8,1.3,2.2,2.1,5.7,11.7,6.9,0.8,0.9,0.9
22/02/2014,28.5,61.8,37.7,4.4,4.0,3.8,10.3,14.1,6.9,3.1,1.7,1.7
23/02/2014,38.7,73.7,42.9,7.9,5.7,5.5,10.2,11.9,5.2,3.5,1.7,1.7
24/02/2014,42.8,90.6,55.7,7.9,5.7,5.5,4.1,16.9,12.8,0.0,0.0,0.0
25/02/2014,49.8,107.0,65.8,8.7,7.3,7.0,7.0,16.4,10.2,0.8,1.6,1.6
26/02/2014,57.3,118.7,71.6,10.2,9.3,9.0,7.5,11.7,5.7,1.5,2.1,2.0
27/02/2014,68.8,131.6,77.2,14.5,11.8,11.5,11.6,12.9,5.6,4.3,2.5,2.4
28/02/2014,77.4,144.9,83.8,16.5,13.8,13.4,8.6,13.3,6.6,2.0,2.0,1.9
01/03/2014,82.8,158.7,92.4,16.7,14.4,13.9,5.4,13.8,8.6,0.2,0.6,0.6
02/03/2014,93.7,175.7,101.3,19.6,16.4,15.8,10.9,17.1,8.9,2.9,2.0,1.9
03/03/2014,99.1,187.2,107.6,19.9,17.1,16.5,5.3,11.5,6.4,0.3,0.7,0.7
04/03/2014,105.4,202.8,117.3,20.3,18.3,17.7,6.4,15.6,9.6,0.5,1.2,1.2
05/03/2014,113.7,216.0,123.8,22.0,19.9,19.3,8.2,13.2,6.5,1.7,1.6,1.6
06/03/2014,124.4,230.5,129.7,24.2,22.6,21.8,10.7,14.5,5.9,2.2,2.6,2.4
07/03/2014,133.6,243.5,135.7,26.5,24.3,23.5,9.2,12.9,6.0,2.3,1.7,1.7
08/03/2014,142.5,257.8,142.9,28.3,26.2,25.3,8.9,14.3,7.2,1.8,1.9,1.9
09/03/2014,154.5,269.4,147.2,33.1,27.6,26.8,12.0,11.6,4.4,4.8,1.5,1.4
10/03/2014,167.7,286.2,153.8,35.9,29.8,28.8,13.2,16.9,6.6,2.8,2.1,2.0
11/03/2014,174.6,299.9,161.2,36.4,31.2,30.2,6.9,13.6,7.3,0.5,1.4,1.4
12/03/2014,179.2,314.0,170.9,36.4,31.2,30.2,4.6,14.2,9.7,0.0,0.0,0.0
13/03/2014,190.6,326.7,176.3,40.3,32.8,31.8,11.4,12.7,5.4,3.9,1.6,1.6
14/03/2014,203.4,340.4,182.5,45.6,34.1,33.0,12.8,13.6,6.2,5.2,1.3,1.2
15/03/2014,217.6,355.7,190.0,51.8,34.4,33.3,14.2,15.3,7.5,6.3,0.3,0.3
16/03/2014,231.8,369.3,195.9,58.1,35.8,34.6,14.2,13.7,5.9,6.3,1.4,1.3
17/03/2014,245.4,382.1,200.9,63.8,36.9,35.7,13.6,12.8,5.0,5.6,1.1,1.1
18/03/2014,253.0,395.6,208.5,65.2,38.2,37.0,7.6,13.5,7.5,1.4,1.3,1.2
19/03/2014,261.9,411.0,216.7,66.9,39.5,38.2,8.9,15.5,8.3,1.7,1.4,1.3
20/03/2014,271.9,423.1,221.8,69.8,40.8,39.5,10.0,12.1,5.1,2.8,1.3,1.3
21/03/2014,279.9,433.6,226.9,71.9,41.8,40.5,7.9,10.5,5.0,2.1,1.0,1.0
22/03/2014,293.1,445.4,232.1,78.3,44.2,42.8,13.3,11.8,5.2,6.5,2.4,2.3
23/03/2014,308.1,460.8,238.5,84.1,46.8,45.1,14.9,15.4,6.4,5.8,2.6,2.3
24/03/2014,319.6,474.1,244.6,88.3,48.3,46.6,11.6,13.3,6.1,4.2,1.5,1.4
25/03/2014,333.5,489.2,252.3,94.3,50.6,48.8,13.8,15.1,7.7,6.0,2.3,2.3
26/03/2014,338.9,499.4,257.9,94.8,51.1,49.3,5.4,10.2,5.6,0.4,0.5,0.5
27/03/2014,346.6,513.3,265.6,96.1,52.4,50.6,7.6,13.9,7.8,1.3,1.3,1.3
28/03/2014,354.8,524.5,271.0,98.1,54.1,52.3,8.2,11.2,5.4,2.1,1.7,1.7
29/03/2014,363.6,540.2,280.5,100.3,55.3,53.3,8.8,15.7,9.5,2.2,1.1,1.0
30/03/2014,379.9,552.8,285.1,108.3,55.7,53.6,16.3,12.6,4.6,8.0,0.4,0.4
31/03/2014,391.9,567.0,292.1,112.8,56.4,54.3,12.0,14.2,7.0,4.5,0.7,0.7
01/04/2014,400.4,577.2,296.2,115.0,57.2,55.2,8.5,10.1,4.2,2.2,0.8,0.8
02/04/2014,411.0,588.7,301.1,118.5,58.0,55.9,10.6,11.5,4.9,3.6,0.8,0.7
03/04/2014,418.7,600.8,307.3,120.1,59.2,57.1,7.7,12.0,6.1,1.6,1.2,1.2
04/04/2014,425.8,611.2,311.4,121.1,60.4,58.3,7.1,10.4,4.1,1.0,1.2,1.2
05/04/2014,434.3,624.1,317.4,122.8,61.7,59.6,8.4,12.9,6.0,1.7,1.3,1.3
06/04/2014,441.9,635.0,321.8,124.1,63.0,60.9,7.6,11.0,4.4,1.3,1.3,1.3
07/04/2014,447.6,650.7,332.1,124.3,63.5,61.4,5.7,15.6,10.2,0.2,0.5,0.5
08/04/2014,452.2,668.7,345.4,124.3,63.5,61.4,4.7,18.0,13.4,0.1,0.0,0.0
09/04/2014,465.3,683.8,352.6,129.6,65.8,63.5,13.1,15.1,7.2,5.3,2.3,2.2
10/04/2014,481.2,695.9,356.6,137.4,66.7,64.4,15.9,12.2,4.0,7.8,0.9,0.8
11/04/2014,498.1,709.1,362.1,146.8,67.4,65.1,16.9,13.2,5.5,9.4,0.8,0.7
12/04/2014,509.3,720.7,366.7,151.3,68.4,66.1,11.3,11.6,4.5,4.4,1.0,1.0
13/04/2014,521.1,732.7,370.7,155.3,69.1,66.8,11.7,12.0,4.0,4.0,0.7,0.7
14/04/2014,540.3,746.3,375.2,165.3,70.3,67.9,19.2,13.6,4.5,10.0,1.2,1.1
15/04/2014,558.4,762.8,382.0,174.0,72.0,69.4,18.1,16.4,6.8,8.7,1.7,1.5
16/04/2014,578.1,777.2,387.3,185.2,72.8,70.0,19.8,14.4,5.4,11.2,0.8,0.6
17/04/2014,595.5,790.4,391.3,193.3,73.4,70.6,17.4,13.3,3.9,8.2,0.6,0.6
18/04/2014,608.8,802.3,395.5,199.2,74.1,71.3,13.3,11.9,4.2,5.8,0.7,0.7
19/04/2014,625.5,814.5,399.2,207.7,75.7,72.8,16.7,12.1,3.7,8.5,1.6,1.5
20/04/2014,638.5,828.7,404.4,211.7,78.7,75.5,13.1,14.3,5.2,4.0,3.0,2.7
21/04/2014,643.5,839.7,410.2,211.7,78.8,75.5,5.0,10.9,5.7,0.1,0.1,0.1
22/04/2014,655.9,854.8,417.1,216.2,80.4,77.0,12.3,15.2,7.0,4.5,1.6,1.5
23/04/2014,664.2,866.4,422.3,218.0,81.7,78.3,8.3,11.6,5.2,1.8,1.3,1.3
24/04/2014,674.8,883.5,431.1,220.2,83.9,80.1,10.6,17.1,8.8,2.2,2.2,1.8
25/04/2014,688.7,897.8,437.3,226.3,85.0,81.1,13.9,14.2,6.2,6.1,1.1,1.1
26/04/2014,693.2,907.5,442.6,226.3,85.0,81.1,4.5,9.8,5.3,0.0,0.0,0.0
27/04/2014,707.9,922.0,448.7,232.8,87.3,83.1,14.7,14.5,6.0,6.5,2.3,2.0
28/04/2014,716.9,936.3,455.8,234.8,88.4,84.2,9.0,14.3,7.1,2.0,1.1,1.1
29/04/2014,724.3,948.6,461.8,236.1,89.8,85.6,7.4,12.4,6.0,1.3,1.4,1.4
30/04/2014,731.1,959.5,466.6,236.8,90.7,86.4,6.8,10.9,4.9,0.8,0.8,0.8
01/05/2014,746.7,972.5,471.4,244.4,92.4,88.1,15.6,12.9,4.7,7.6,1.7,1.7
02/05/2014,752.6,988.5,481.8,244.8,93.4,89.1,6.0,16.0,10.4,0.3,1.0,1.0
03/05/2014,759.1,999.3,486.9,245.6,94.0,89.8,6.4,10.9,5.1,0.9,0.7,0.7
04/05/2014,779.2,1013.0,491.1,256.5,94.7,90.4,20.1,13.7,4.2,10.9,0.7,0.6
05/05/2014,798.3,1026.0,494.5,266.1,95.3,90.9,19.1,13.0,3.5,9.6,0.6,0.5
06/05/2014,814.2,1039.0,499.2,273.5,96.1,91.7,15.9,13.0,4.6,7.4,0.8,0.8
07/05/2014,830.1,1053.0,504.0,281.2,98.4,93.9,15.9,14.0,4.8,7.7,2.3,2.2
08/05/2014,842.1,1064.0,507.6,286.1,100.0,95.4,12.0,11.0,3.6,4.9,1.6,1.6
09/05/2014,848.2,1075.0,512.7,286.4,100.3,95.8,6.1,11.0,5.1,0.3,0.4,0.4
10/05/2014,866.2,1089.0,517.7,295.3,103.1,98.3,18.0,14.0,5.0,8.9,2.7,2.6
11/05/2014,878.2,1102.0,522.8,299.4,105.7,100.7,12.1,13.0,5.2,4.1,2.6,2.4
12/05/2014,888.2,1120.0,532.4,301.3,107.1,101.9,10.0,18.0,9.5,1.8,1.4,1.2
13/05/2014,905.9,1133.0,536.8,311.1,108.8,103.5,17.7,13.0,4.4,9.8,1.7,1.6
14/05/2014,919.8,1146.0,542.0,316.7,110.2,104.8,13.9,13.0,5.2,5.6,1.4,1.3
15/05/2014,938.2,1158.0,545.6,326.9,111.4,106.0,18.4,12.0,3.6,10.2,1.2,1.2
16/05/2014,954.3,1171.0,549.6,334.9,112.8,107.3,16.2,13.0,4.0,8.1,1.4,1.3
17/05/2014,970.5,1183.0,553.3,342.7,114.3,108.8,16.1,12.0,3.8,7.8,1.6,1.5
18/05/2014,982.9,1197.0,558.8,346.7,116.0,110.4,12.4,14.0,5.5,4.0,1.7,1.6
19/05/2014,1002.0,1208.0,562.4,356.8,116.8,111.3,19.1,11.0,3.6,10.1,0.9,0.9
20/05/2014,1020.0,1220.0,566.4,365.7,118.5,112.8,18.0,12.0,4.0,8.9,1.6,1.5
21/05/2014,1028.0,1229.0,570.4,367.2,119.9,114.2,8.0,9.0,4.0,1.5,1.4,1.4
22/05/2014,1042.0,1238.0,573.9,373.1,121.0,115.3,14.0,9.0,3.5,5.9,1.1,1.1
23/05/2014,1053.0,1250.0,579.7,376.7,123.0,117.3,11.0,12.0,5.8,3.6,2.0,2.0
24/05/2014,1060.0,1258.0,583.6,377.8,124.2,118.5,7.0,8.0,3.9,1.1,1.2,1.2
25/05/2014,1071.0,1273.0,590.3,380.2,126.4,120.2,11.0,15.0,6.7,2.3,2.2,1.8
26/05/2014,1089.0,1285.0,595.1,389.4,128.8,122.5,18.0,12.0,4.9,9.2,2.4,2.3
27/05/2014,1094.0,1294.0,600.6,389.4,128.8,122.5,5.0,9.0,5.5,0.0,0.0,0.0
28/05/2014,1099.0,1311.0,612.6,389.4,128.9,122.6,5.0,17.0,12.0,0.0,0.1,0.0
29/05/2014,1104.0,1320.0,618.1,389.5,129.0,122.7,5.0,9.0,5.5,0.1,0.1,0.1
30/05/2014,1114.0,1331.0,623.9,391.5,130.1,123.8,10.0,11.0,5.8,2.0,1.1,1.1
31/05/2014,1120.0,1344.0,631.1,391.8,130.8,124.4,6.0,13.0,7.1,0.3,0.6,0.6
01/06/2014,1133.0,1353.0,634.0,396.9,131.2,124.9,13.0,9.0,3.0,5.1,0.4,0.4
02/06/2014,1148.0,1365.0,637.5,402.9,132.6,126.2,15.0,12.0,3.5,6.0,1.4,1.3
03/06/2014,1159.0,1381.0,646.7,405.7,133.4,126.9,11.0,16.0,9.2,2.8,0.8,0.7
04/06/2014,1171.0,1390.0,650.1,410.5,134.5,128.0,12.0,9.0,3.4,4.8,1.1,1.1
05/06/2014,1180.0,1399.0,653.9,412.5,136.4,129.9,9.0,9.0,3.8,2.0,1.9,1.8
06/06/2014,1195.0,1410.0,659.3,420.4,138.6,132.0,15.0,11.0,5.4,7.9,2.2,2.1
07/06/2014,1213.0,1420.0,662.4,431.0,138.9,132.2,18.0,10.0,3.1,10.6,0.3,0.3
08/06/2014,1225.0,1434.0,669.1,435.7,139.9,133.1,12.0,14.0,6.7,4.7,1.0,0.9
09/06/2014,1243.0,1445.0,672.2,445.3,141.6,134.8,18.0,11.0,3.1,9.6,1.7,1.6
10/06/2014,1256.0,1455.0,676.1,452.3,142.7,135.8,13.0,10.0,3.9,7.0,1.1,1.1
11/06/2014,1275.0,1467.0,680.4,462.5,144.5,137.5,19.0,12.0,4.3,10.2,1.8,1.7
12/06/2014,1289.0,1478.0,684.8,469.7,146.5,139.4,14.0,11.0,4.5,7.1,2.0,1.9
13/06/2014,1304.0,1488.0,688.6,477.8,147.9,140.8,15.0,10.0,3.8,8.1,1.4,1.4
14/06/2014,1321.0,1499.0,692.7,487.6,149.1,142.0,17.0,11.0,4.2,9.8,1.2,1.2
15/06/2014,1332.0,1515.0,698.7,491.3,151.4,144.1,11.0,16.0,5.9,3.7,2.2,2.1
16/06/2014,1339.0,1527.0,704.7,492.1,152.4,145.1,7.0,12.0,6.1,0.8,1.1,1.1
17/06/2014,1346.0,1537.0,709.4,493.8,153.9,146.6,7.0,10.0,4.7,1.7,1.5,1.5
18/06/2014,1364.0,1549.0,714.3,503.4,155.2,147.8,18.0,12.0,4.9,9.6,1.3,1.2
19/06/2014,1376.0,1559.0,718.3,509.2,156.4,149.0,12.0,10.0,4.0,5.9,1.3,1.2
20/06/2014,1386.0,1568.0,721.8,512.7,158.4,150.9,10.0,9.0,3.5,3.4,1.9,1.9
21/06/2014,1400.0,1579.0,725.6,519.9,159.2,151.8,14.0,11.0,3.7,7.3,0.9,0.9
22/06/2014,1417.0,1591.0,729.7,529.0,160.6,153.0,17.0,12.0,4.2,9.1,1.3,1.3
23/06/2014,1428.0,1603.0,734.0,532.6,163.5,155.7,11.0,12.0,4.3,3.7,3.0,2.7
24/06/2014,1442.0,1614.0,738.1,539.4,164.8,156.9,14.0,11.0,4.2,6.8,1.3,1.2
25/06/2014,1457.0,1625.0,742.6,546.4,166.2,158.2,15.0,11.0,4.4,7.0,1.4,1.3
26/06/2014,1474.0,1638.0,748.7,556.3,167.5,159.5,17.0,13.0,6.1,9.9,1.3,1.3
27/06/2014,1487.0,1648.0,753.0,563.6,168.3,160.3,13.0,10.0,4.3,7.3,0.8,0.8
28/06/2014,1500.0,1661.0,757.4,568.1,170.5,162.4,13.0,13.0,4.4,4.5,2.3,2.1
29/06/2014,1507.0,1669.0,761.1,569.9,171.8,163.6,7.0,8.0,3.7,1.9,1.2,1.2
30/06/2014,1521.0,1686.0,767.8,574.2,174.4,165.8,14.0,17.0,6.6,4.3,2.6,2.2
01/07/2014,1532.0,1696.0,771.6,578.9,175.3,166.7,11.0,10.0,3.8,4.7,1.0,0.9
02/07/2014,1546.0,1707.0,777.0,585.9,176.8,168.1,14.0,11.0,5.4,7.0,1.4,1.4
03/07/2014,1562.0,1717.0,780.5,594.6,178.0,169.3,16.0,10.0,3.5,8.8,1.2,1.2
04/07/2014,1580.0,1729.0,785.7,605.7,178.4,169.7,18.0,12.0,5.2,11.0,0.4,0.4
05/07/2014,1597.0,1739.0,789.1,615.2,179.4,170.7,17.0,10.0,3.5,9.5,1.0,1.0
06/07/2014,1605.0,1749.0,793.4,617.6,180.5,171.8,8.0,10.0,4.3,2.4,1.1,1.1
07/07/2014,1617.0,1764.0,799.6,621.6,183.4,174.2,12.0,15.0,6.1,4.0,3.0,2.4
08/07/2014,1627.0,1777.0,807.1,625.5,185.1,175.8,10.0,13.0,7.5,3.9,1.7,1.7
09/07/2014,1637.0,1787.0,810.8,629.2,186.9,177.6,10.0,10.0,3.7,3.7,1.8,1.8
10/07/2014,1649.0,1798.0,814.8,634.5,189.3,179.9,12.0,11.0,3.9,5.4,2.4,2.4
11/07/2014,1663.0,1808.0,818.6,641.6,190.1,180.7,14.0,10.0,3.8,7.1,0.7,0.7
12/07/2014,1669.0,1819.0,824.7,642.5,191.1,181.7,6.0,11.0,6.1,0.9,1.0,1.0
13/07/2014,1683.0,1831.0,829.3,649.4,192.0,182.5,14.0,12.0,4.6,6.9,0.9,0.8
14/07/2014,1694.0,1845.0,835.5,652.6,193.8,184.3,11.0,14.0,6.2,3.3,1.9,1.8
15/07/2014,1709.0,1855.0,839.1,660.9,196.1,186.5,15.0,10.0,3.6,8.3,2.3,2.2
16/07/2014,1724.0,1865.0,843.0,668.8,197.7,188.0,15.0,10.0,3.8,8.0,1.6,1.5
17/07/2014,1737.0,1877.0,847.4,674.6,198.6,188.9,13.0,12.0,4.4,5.7,0.9,0.8
18/07/2014,1752.0,1888.0,851.4,682.3,200.7,190.9,15.0,11.0,4.0,7.7,2.1,2.0
19/07/2014,1769.0,1900.0,855.0,692.0,201.3,191.5,17.0,12.0,3.6,9.8,0.6,0.6
20/07/2014,1779.0,1917.0,862.0,695.6,202.4,192.6,10.0,17.0,7.0,3.5,1.2,1.1
21/07/2014,1789.0,1930.0,867.1,699.3,203.4,193.6,10.0,13.0,5.1,3.7,1.0,1.0
22/07/2014,1802.0,1941.0,870.9,704.9,204.6,194.8,13.0,11.0,3.8,5.7,1.2,1.2
23/07/2014,1817.0,1951.0,874.9,713.8,205.3,195.4,15.0,10.0,4.0,8.8,0.7,0.6
24/07/2014,1833.0,1963.0,878.9,721.2,207.3,197.3,16.0,12.0,4.0,7.4,2.0,1.9
25/07/2014,1848.0,1975.0,882.5,728.7,208.4,198.3,15.0,12.0,3.6,7.5,1.1,1.0
26/07/2014,1859.0,1986.0,886.4,733.5,209.3,199.2,11.0,11.0,3.9,4.8,0.9,0.9
27/07/2014,1873.0,1997.0,889.8,741.1,209.9,199.8,14.0,11.0,3.4,7.6,0.6,0.6
28/07/2014,1887.0,2011.0,894.9,746.9,211.3,201.0,14.0,14.0,5.1,5.8,1.4,1.3
29/07/2014,1897.0,2025.0,901.9,751.1,212.2,201.8,10.0,14.0,7.0,4.3,0.9,0.7
30/07/2014,1913.0,2037.0,906.1,759.1,213.7,203.2,16.0,12.0,4.2,8.0,1.5,1.4
31/07/2014,1929.0,2049.0,910.7,767.7,214.8,204.3,16.0,12.0,4.7,8.6,1.2,1.1
01/08/2014,1942.0,2060.0,914.3,774.6,216.5,205.9,13.0,11.0,3.6,6.9,1.7,1.6
02/08/2014,1953.0,2071.0,918.6,778.5,218.2,207.5,11.0,11.0,4.3,3.9,1.7,1.6
03/08/2014,1964.0,2080.0,922.4,783.6,219.6,209.0,11.0,9.0,3.8,5.0,1.4,1.4
04/08/2014,1981.0,2092.0,926.3,792.7,221.6,210.9,17.0,12.0,3.9,9.1,2.0,1.9
05/08/2014,1995.0,2103.0,930.5,799.9,222.8,212.0,14.0,11.0,4.2,7.2,1.2,1.2
06/08/2014,2006.0,2118.0,937.5,803.3,224.3,213.5,11.0,15.0,6.9,3.4,1.5,1.4
07/08/2014,2020.0,2129.0,941.5,810.5,226.1,215.2,14.0,11.0,4.0,7.2,1.8,1.7
08/08/2014,2035.0,2140.0,945.5,818.9,227.7,216.6,15.0,11.0,4.0,8.4,1.5,1.5
09/08/2014,2043.0,2152.0,951.0,821.7,228.6,217.6,8.0,12.0,5.5,2.8,1.0,0.9
10/08/2014,2058.0,2164.0,956.9,829.8,231.0,219.8,15.0,12.0,5.9,8.1,2.3,2.2
11/08/2014,2067.0,2178.0,964.7,832.5,233.2,221.7,9.0,14.0,7.7,2.7,2.2,1.9
12/08/2014,2079.0,2191.0,970.6,836.7,236.0,224.2,12.0,13.0,5.9,4.3,2.8,2.5
13/08/2014,2091.0,2202.0,975.0,842.4,237.8,225.9,12.0,11.0,4.4,5.6,1.8,1.7
14/08/2014,2106.0,2212.0,978.6,851.3,239.4,227.4,15.0,10.0,3.6,8.9,1.7,1.6
15/08/2014,2116.0,2223.0,983.5,854.4,241.7,229.4,10.0,11.0,4.9,3.1,2.2,2.0
16/08/2014,2124.0,2235.0,989.4,856.9,244.0,231.6,8.0,12.0,5.9,2.5,2.3,2.2
17/08/2014,2136.0,2250.0,996.4,861.3,247.8,234.8,12.0,15.0,7.0,4.5,3.8,3.2
18/08/2014,2146.0,2263.0,1004.0,865.9,249.0,235.9,10.0,13.0,7.6,4.6,1.2,1.1
19/08/2014,2159.0,2274.0,1008.0,872.1,251.2,238.0,13.0,11.0,4.0,6.2,2.2,2.1
20/08/2014,2170.0,2283.0,1012.0,877.2,253.5,240.3,11.0,9.0,4.0,5.0,2.3,2.3
21/08/2014,2182.0,2292.0,1015.0,882.6,256.3,243.0,12.0,9.0,3.0,5.4,2.7,2.7
22/08/2014,2191.0,2300.0,1018.0,885.8,258.6,245.2,9.0,8.0,3.0,3.3,2.3,2.3
23/08/2014,2202.0,2309.0,1022.0,890.6,260.7,247.3,11.0,9.0,4.0,4.8,2.1,2.0
24/08/2014,2213.0,2318.0,1025.0,895.2,263.1,249.7,11.0,9.0,3.0,4.5,2.5,2.4
25/08/2014,2225.0,2327.0,1028.0,900.1,265.8,252.3,12.0,9.0,3.0,4.9,2.7,2.7
26/08/2014,2228.0,2334.0,1032.0,900.1,265.8,252.3,3.0,7.0,4.0,0.0,0.0,0.0
27/08/2014,2233.0,2343.0,1038.0,900.4,266.4,252.9,5.0,9.0,6.0,0.4,0.6,0.6
28/08/2014,2239.0,2359.0,1049.0,901.0,267.7,254.0,6.0,16.0,11.0,0.6,1.3,1.1
29/08/2014,2248.0,2374.0,1057.0,904.5,269.5,255.8,9.0,15.0,8.0,3.5,1.8,1.8
30/08/2014,2257.0,2385.0,1062.0,907.2,271.2,257.5,9.0,11.0,5.0,2.7,1.7,1.6
31/08/2014,2267.0,2396.0,1066.0,911.3,272.1,258.3,10.0,11.0,4.0,4.1,0.8,0.8
01/09/2014,2279.0,2414.0,1073.0,916.2,274.5,260.5,12.0,18.0,7.0,4.9,2.4,2.1
02/09/2014,2284.0,2433.0,1085.0,916.2,274.5,260.5,5.0,19.0,12.0,0.1,0.0,0.0
03/09/2014,2297.0,2450.0,1092.0,922.7,276.8,262.1,13.0,17.0,7.0,6.4,2.3,1.6
04/09/2014,2308.0,2463.0,1096.0,927.6,278.7,263.9,11.0,13.0,4.0,5.0,1.9,1.9
05/09/2014,2313.0,2477.0,1102.0,928.5,279.9,265.2,5.0,14.0,6.0,0.9,1.3,1.2
06/09/2014,2318.0,2490.0,1107.0,929.2,280.6,265.9,5.0,13.0,5.0,0.7,0.7,0.7
07/09/2014,2325.0,2506.0,1114.0,930.6,282.1,267.2,7.0,16.0,7.0,1.4,1.5,1.4
08/09/2014,2334.0,2522.0,1121.0,933.5,283.0,268.1,9.0,16.0,7.0,2.9,0.9,0.9
09/09/2014,2349.0,2535.0,1125.0,941.6,284.6,269.7,15.0,13.0,4.0,8.1,1.6,1.5
10/09/2014,2363.0,2548.0,1129.0,949.3,285.6,270.7,14.0,13.0,4.0,7.7,1.0,1.0
11/09/2014,2372.0,2561.0,1134.0,953.3,287.6,272.6,9.0,13.0,5.0,4.0,2.0,1.9
12/09/2014,2377.0,2576.0,1141.0,954.0,288.7,273.7,5.0,15.0,7.0,0.7,1.1,1.1
13/09/2014,2386.0,2591.0,1148.0,958.1,290.1,275.0,9.0,15.0,7.0,4.1,1.4,1.3
14/09/2014,2393.0,2605.0,1153.0,960.4,291.5,276.4,7.0,14.0,5.0,2.3,1.4,1.4
15/09/2014,2402.0,2623.0,1162.0,961.8,292.9,277.8,9.0,18.0,9.0,1.4,1.5,1.4
16/09/2014,2411.0,2640.0,1170.0,965.6,294.2,279.0,9.0,17.0,8.0,3.8,1.3,1.2
17/09/2014,2418.0,2655.0,1176.0,968.0,295.2,280.0,7.0,15.0,6.0,2.3,1.0,1.0
18/09/2014,2423.0,2669.0,1182.0,968.5,296.4,281.2,5.0,14.0,6.0,0.5,1.2,1.2
19/09/2014,2432.0,2682.0,1187.0,973.0,297.2,281.9,9.0,13.0,5.0,4.5,0.8,0.8
20/09/2014,2437.0,2695.0,1192.0,974.5,298.0,282.7,5.0,13.0,5.0,1.5,0.8,0.8
21/09/2014,2440.0,2714.0,1204.0,974.5,298.1,282.8,3.0,19.0,12.0,0.1,0.1,0.1
22/09/2014,2452.0,2731.0,1211.0,978.5,299.9,284.5,12.0,17.0,7.0,4.0,1.8,1.7
23/09/2014,2464.0,2744.0,1215.0,985.7,300.5,285.0,12.0,13.0,4.0,7.2,0.6,0.6
24/09/2014,2473.0,2757.0,1220.0,989.3,301.9,286.5,9.0,13.0,5.0,3.6,1.5,1.5
25/09/2014,2483.0,2770.0,1225.0,994.2,303.8,288.2,10.0,13.0,5.0,5.0,1.8,1.7
26/09/2014,2491.0,2786.0,1232.0,997.2,305.5,289.9,8.0,16.0,7.0,3.0,1.7,1.7
27/09/2014,2497.0,2799.0,1238.0,999.3,306.4,290.8,6.0,13.0,6.0,2.1,0.9,0.9
28/09/2014,2505.0,2815.0,1246.0,1002.0,307.7,292.0,8.0,16.0,8.0,2.7,1.3,1.3
29/09/2014,2515.0,2832.0,1253.0,1005.0,309.4,293.4,10.0,17.0,7.0,3.0,1.7,1.4
30/09/2014,2519.0,2845.0,1258.0,1005.0,309.9,294.0,4.0,13.0,5.0,0.0,0.5,0.5
01/10/2014,2529.0,2858.0,1263.0,1010.0,311.2,295.2,10.0,13.0,5.0,5.0,1.3,1.3
02/10/2014,2534.0,2874.0,1271.0,1012.0,312.5,296.4,5.0,16.0,8.0,2.0,1.3,1.2
03/10/2014,2539.0,2888.0,1277.0,1013.0,313.6,297.5,5.0,14.0,6.0,1.0,1.1,1.1
04/10/2014,2549.0,2903.0,1284.0,1017.0,315.4,299.1,10.0,15.0,7.0,4.0,1.8,1.6
05/10/2014,2552.0,2918.0,1291.0,1018.0,316.1,299.8,3.0,15.0,7.0,1.0,0.7,0.7
06/10/2014,2562.0,2933.0,1297.0,1021.0,317.1,300.7,10.0,15.0,6.0,3.0,1.0,0.9
07/10/2014,2563.0,2948.0,1306.0,1021.0,317.1,300.7,1.0,15.0,9.0,0.0,0.0,0.0
08/10/2014,2572.0,2960.0,1311.0,1026.0,318.3,301.9,9.0,12.0,5.0,5.0,1.3,1.2
09/10/2014,2578.0,2974.0,1317.0,1029.0,319.3,302.9,6.0,14.0,6.0,3.0,1.0,0.9
10/10/2014,2584.0,2987.0,1322.0,1031.0,320.7,304.2,6.0,13.0,5.0,2.0,1.4,1.4
11/10/2014,2592.0,3002.0,1329.0,1034.0,321.8,305.3,8.0,15.0,7.0,3.0,1.1,1.0
12/10/2014,2599.0,3017.0,1336.0,1037.0,322.9,306.3,7.0,15.0,7.0,3.0,1.1,1.1
13/10/2014,2603.0,3034.0,1345.0,1037.0,323.4,306.8,4.0,17.0,9.0,0.0,0.5,0.5
14/10/2014,2603.0,3050.0,1355.0,1037.0,323.4,306.8,0.0,16.0,10.0,0.0,0.0,0.0
15/10/2014,2603,3063,1362,1037,323.44,306.85,0.0,13.0,7.0,0.0,0.0,0.0
16/10/2014,2605,3079,1372,1037,323.46,306.87,2.0,16.0,10.0,0.0,0.0,0.0
17/10/2014,2610,3093,1377,1039,324.23,307.63,5.0,14.0,5.0,2.0,0.8,0.8
18/10/2014,2615,3107,1384,1040,325.41,308.77,5.0,14.0,7.0,1.0,1.2,1.1
19/10/2014,2617,3122,1393,1040,325.72,309.06,2.0,15.0,9.0,0.0,0.3,0.3
20/10/2014,2625,3137,1400,1043,327.18,310.42,8.0,15.0,7.0,3.0,1.5,1.4
21/10/2014,2630,3152,1407,1045,328.73,311.94,5.0,15.0,7.0,2.0,1.6,1.5
22/10/2014,2636,3169,1417,1047,330.58,313.61,6.0,17.0,10.0,2.0,1.8,1.7
23/10/2014,2641,3183,1423,1048,331.05,314.07,5.0,14.0,6.0,1.0,0.5,0.5
24/10/2014,2643,3197,1430,1048,331.36,314.38,2.0,14.0,7.0,0.0,0.3,0.3
25/10/2014,2644,3212,1439,1048,331.36,314.38,1.0,15.0,9.0,0.0,0.0,0.0
26/10/2014,2649,3225,1444,1049,332.46,315.46,5.0,13.0,5.0,1.0,1.1,1.1
27/10/2014,2652,3244,1456,1049,332.46,315.46,3.0,19.0,12.0,0.0,0.0,0.0
28/10/2014,2661,3257,1462,1053,333.04,316,9.0,13.0,6.0,4.0,0.6,0.5
29/10/2014,2668,3276,1473,1056,333.33,316.29,7.0,19.0,11.0,3.0,0.3,0.3
30/10/2014,2668,3289,1481,1056,333.33,316.29,0.0,13.0,8.0,0.0,0.0,0.0
31/10/2014,2671,3303,1489,1056,333.57,316.53,3.0,14.0,8.0,0.0,0.2,0.2
01/11/2014,2679,3319,1497,1060,333.86,316.8,8.0,16.0,8.0,4.0,0.3,0.3
02/11/2014,2686,3332,1502,1063,334.73,317.64,7.0,13.0,5.0,3.0,0.9,0.8
03/11/2014,2689,3347,1512,1064,335.15,318.05,3.0,15.0,10.0,1.0,0.4,0.4
04/11/2014,2690,3361,1519,1064,335.28,318.18,1.0,14.0,7.0,0.0,0.1,0.1
05/11/2014,2694,3377,1529,1066,335.47,318.36,4.0,16.0,10.0,2.0,0.2,0.2
06/11/2014,2697,3391,1536,1067,335.72,318.6,3.0,14.0,7.0,1.0,0.3,0.2
07/11/2014,2699,3405,1543,1067,336.01,318.89,2.0,14.0,7.0,0.0,0.3,0.3
08/11/2014,2702,3419,1549,1067,336.68,319.54,3.0,14.0,6.0,0.0,0.7,0.7
09/11/2014,2704,3434,1558,1068,336.78,319.64,2.0,15.0,9.0,1.0,0.1,0.1
10/11/2014,2711,3449,1567,1071,337.16,320.02,7.0,15.0,9.0,3.0,0.4,0.4
11/11/2014,2715,3463,1573,1072,337.47,320.32,4.0,14.0,6.0,1.0,0.3,0.3
12/11/2014,2718,3477,1580,1072,337.48,320.32,3.0,14.0,7.0,0.0,0.0,0.0
13/11/2014,2722,3490,1587,1074,337.98,320.81,4.0,13.0,7.0,2.0,0.5,0.5
14/11/2014,2723,3505,1596,1074,338.01,320.83,1.0,15.0,9.0,0.0,0.0,0.0
15/11/2014,2727,3518,1602,1075,338.88,321.66,4.0,13.0,6.0,1.0,0.9,0.8
16/11/2014,2730,3532,1609,1076,339.25,322.01,3.0,14.0,7.0,1.0,0.4,0.3
17/11/2014,2733,3550,1623,1076,339.25,322.01,3.0,18.0,14.0,0.0,0.0,0.0
18/11/2014,2733,3565,1631,1076,339.26,322.02,0.0,15.0,8.0,0.0,0.0,0.0
19/11/2014,2739,3578,1637,1078,339.75,322.5,6.0,13.0,6.0,2.0,0.5,0.5
20/11/2014,2742,3591,1644,1079,340.38,323.11,3.0,13.0,7.0,1.0,0.6,0.6
21/11/2014,2746,3604,1650,1080,341.37,324.07,4.0,13.0,6.0,1.0,1.0,1.0
22/11/2014,2746,3618,1657,1080,341.37,324.07,0.0,14.0,7.0,0.0,0.0,0.0
23/11/2014,2746,3631,1663,1080,341.37,324.07,0.0,13.0,6.0,0.0,0.0,0.0
24/11/2014,2746,3649,1676,1080,341.37,324.07,0.0,18.0,13.0,0.0,0.0,0.0
25/11/2014,2751,3666,1685,1081,342,324.65,5.0,17.0,9.0,1.0,0.6,0.6
26/11/2014,2751,3679,1692,1081,342,324.65,0.0,13.0,7.0,0.0,0.0,0.0
27/11/2014,2751,3694,1703,1081,342,324.65,0.0,15.0,11.0,0.0,0.0,0.0
28/11/2014,2754,3707,1709,1083,342.72,325.34,3.0,13.0,6.0,2.0,0.7,0.7
29/11/2014,2755,3720,1716,1083,342.72,325.34,1.0,13.0,7.0,0.0,0.0,0.0
30/11/2014,2758,3738,1728,1083,343.53,325.9,3.0,18.0,12.0,0.0,0.8,0.6
01/12/2014,2762,3755,1738,1084,344.76,327.04,4.0,17.0,10.0,1.0,1.2,1.1
02/12/2014,2762,3769,1746,1084,344.76,327.04,0.0,14.0,8.0,0.0,0.0,0.0
03/12/2014,2762,3783,1753,1084,344.76,327.04,0.0,14.0,7.0,0.0,0.0,0.0
04/12/2014,2765,3796,1760,1085,344.95,327.23,3.0,13.0,7.0,1.0,0.2,0.2
05/12/2014,2765,3809,1768,1085,344.95,327.23,0.0,13.0,8.0,0.0,0.0,0.0
06/12/2014,2767,3823,1774,1085,345.21,327.48,2.0,14.0,6.0,0.0,0.3,0.3
07/12/2014,2772,3839,1783,1087,345.54,327.81,5.0,16.0,9.0,2.0,0.3,0.3
08/12/2014,2774,3857,1794,1088,346.16,328.4,2.0,18.0,11.0,1.0,0.6,0.6
09/12/2014,2778,3872,1802,1089,346.56,328.76,4.0,15.0,8.0,1.0,0.4,0.4
10/12/2014,2780,3887,1810,1089,346.56,328.76,2.0,15.0,8.0,0.0,0.0,0.0
11/12/2014,2785,3903,1819,1091,347.03,329.18,5.0,16.0,9.0,2.0,0.5,0.4
12/12/2014,2787,3917,1826,1091,347.27,329.41,2.0,14.0,7.0,0.0,0.2,0.2
13/12/2014,2788,3931,1833,1091,347.27,329.41,1.0,14.0,7.0,0.0,0.0,0.0
14/12/2014,2792,3946,1841,1093,347.73,329.88,4.0,15.0,8.0,2.0,0.5,0.5
15/12/2014,2796,3965,1853,1093,348.3,330.26,4.0,19.0,12.0,0.0,0.6,0.4
16/12/2014,2798,3980,1861,1094,348.48,330.43,2.0,15.0,8.0,1.0,0.2,0.2
17/12/2014,2802,3993,1867,1096,348.89,330.83,4.0,13.0,6.0,2.0,0.4,0.4
18/12/2014,2804,4009,1877,1096,349.04,330.98,2.0,16.0,10.0,0.0,0.2,0.2
19/12/2014,2804,4026,1888,1096,349.05,330.98,0.0,17.0,11.0,0.0,0.0,0.0
20/12/2014,2809,4043,1898,1098,352.26,331.77,5.0,17.0,10.0,2.0,3.2,0.8
21/12/2014,2814,4057,1904,1099,354.21,333.71,5.0,14.0,6.0,1.0,1.9,1.9
22/12/2014,2815,4071,1913,1099,355.65,333.72,1.0,14.0,9.0,0.0,1.4,0.0
23/12/2014,2815,4088,1928,1099,358.1,333.73,0.0,17.0,15.0,0.0,2.5,0.0
24/12/2014,2816,4105,1939,1099,358.11,333.75,1.0,17.0,11.0,0.0,0.0,0.0
25/12/2014,2819,4123,1952,1099,358.67,334.14,3.0,18.0,13.0,0.0,0.6,0.4
26/12/2014,2823,4136,1958,1101,359.91,335.32,4.0,13.0,6.0,2.0,1.2,1.2
27/12/2014,2824,4153,1970,1101,359.91,335.32,1.0,17.0,12.0,0.0,0.0,0.0
28/12/2014,2826,4167,1976,1102,360.39,335.78,2.0,14.0,6.0,1.0,0.5,0.5
29/12/2014,2830,4183,1984,1104,361.01,336.32,4.0,16.0,8.0,2.0,0.6,0.5
30/12/2014,2835,4201,1995,1105,361.44,336.75,5.0,18.0,11.0,1.0,0.4,0.4
31/12/2014,2838,4214,2002,1106,361.63,336.93,3.0,13.0,7.0,1.0,0.2,0.2
01/01/2015,2841,4230,2011,1107,362.39,337.64,3.0,16.0,9.0,1.0,0.8,0.7
02/01/2015,2841,4244,2019,1107,362.39,337.64,0.0,14.0,8.0,0.0,0.0,0.0
03/01/2015,2846,4257,2025,1109,363,338.24,5.0,13.0,6.0,2.0,0.6,0.6
04/01/2015,2846,4272,2034,1109,363.03,338.27,0.0,15.0,9.0,0.0,0.0,0.0
05/01/2015,2847,4294,2050,1109,363.03,338.27,1.0,22.0,16.0,0.0,0.0,0.0
06/01/2015,2848,4307,2056,1109,363.03,338.27,1.0,13.0,6.0,0.0,0.0,0.0
07/01/2015,2849,4320,2063,1109,363.29,338.52,1.0,13.0,7.0,0.0,0.3,0.3
08/01/2015,2850,4334,2070,1109,363.29,338.52,1.0,14.0,7.0,0.0,0.0,0.0